BCS8V LFMN-LFBD

Flight info

Callsign BCS8V
Flight time 1h 3m
Altitude 33000
Route TURIL DCT PADKO/N0447F340 DCT FJR DCT FISTO DCT MIRBA
Aircraft A333/H-SDE3GHIJ2J3J5M1RVWXY/LB2D1

Departure

Time 2026-05-08 16:32
Airport Nice-Côte d'Azur Airport (LFMN)

Arrival

Time 2026-05-08 17:36
Airport Bordeaux–Mérignac Airport (LFBD)
Time Latitude Longitude Altitude Speed Heading
2026-05-08 16:03 43.66326 7.20576 25 ft 0 kts 285°
2026-05-08 16:18 43.66325 7.20579 25 ft 2 kts 285°
2026-05-08 16:18 43.66318 7.20614 28 ft 4 kts 285°
2026-05-08 16:18 43.66311 7.20650 30 ft 4 kts 285°
2026-05-08 16:18 43.66304 7.20686 30 ft 4 kts 285°
2026-05-08 16:19 43.66303 7.20695 30 ft 1 kts 285°
2026-05-08 16:21 43.66303 7.20693 30 ft 0 kts 285°
2026-05-08 16:21 43.66303 7.20692 30 ft 0 kts 279°
2026-05-08 16:21 43.66303 7.20690 30 ft 1 kts 277°
2026-05-08 16:21 43.66301 7.20685 30 ft 1 kts 262°
2026-05-08 16:22 43.66299 7.20680 30 ft 1 kts 244°
2026-05-08 16:22 43.66295 7.20676 30 ft 1 kts 229°
2026-05-08 16:22 43.66291 7.20674 30 ft 1 kts 211°
2026-05-08 16:22 43.66286 7.20673 30 ft 1 kts 191°
2026-05-08 16:23 43.66281 7.20676 30 ft 1 kts 171°
2026-05-08 16:23 43.66278 7.20680 30 ft 1 kts 151°
2026-05-08 16:23 43.66268 7.20693 30 ft 4 kts 135°
2026-05-08 16:23 43.66238 7.20738 28 ft 9 kts 139°
2026-05-08 16:24 43.66180 7.20776 29 ft 8 kts 164°
2026-05-08 16:24 43.66129 7.20789 26 ft 8 kts 170°
2026-05-08 16:24 43.66069 7.20803 25 ft 10 kts 171°
2026-05-08 16:24 43.65994 7.20820 30 ft 12 kts 167°
2026-05-08 16:25 43.65972 7.20904 30 ft 11 kts 68°
2026-05-08 16:25 43.66030 7.20993 30 ft 15 kts 46°
2026-05-08 16:25 43.66112 7.21106 28 ft 17 kts 44°
2026-05-08 16:25 43.66198 7.21224 30 ft 18 kts 44°
2026-05-08 16:26 43.66288 7.21345 27 ft 18 kts 47°
2026-05-08 16:26 43.66350 7.21441 28 ft 13 kts 51°
2026-05-08 16:26 43.66363 7.21548 26 ft 12 kts 120°
2026-05-08 16:26 43.66326 7.21643 25 ft 11 kts 84°
2026-05-08 16:27 43.66374 7.21723 30 ft 11 kts 44°
2026-05-08 16:27 43.66433 7.21803 30 ft 13 kts 45°
2026-05-08 16:27 43.66521 7.21924 29 ft 20 kts 44°
2026-05-08 16:27 43.66621 7.22053 29 ft 19 kts 48°
2026-05-08 16:28 43.66716 7.22192 27 ft 20 kts 47°
2026-05-08 16:28 43.66816 7.22329 30 ft 21 kts 45°
2026-05-08 16:28 43.66920 7.22474 29 ft 21 kts 45°
2026-05-08 16:28 43.66999 7.22584 30 ft 8 kts 46°
2026-05-08 16:29 43.67014 7.22650 27 ft 7 kts 105°
2026-05-08 16:29 43.66982 7.22704 27 ft 8 kts 134°
2026-05-08 16:29 43.66938 7.22752 28 ft 8 kts 148°
2026-05-08 16:29 43.66892 7.22749 31 ft 8 kts 206°
2026-05-08 16:30 43.66830 7.22671 28 ft 14 kts 224°
2026-05-08 16:30 43.66756 7.22576 25 ft 14 kts 212°
2026-05-08 16:30 43.66670 7.22598 29 ft 13 kts 143°
2026-05-08 16:30 43.66605 7.22687 29 ft 13 kts 129°
2026-05-08 16:31 43.66578 7.22789 28 ft 9 kts 118°
2026-05-08 16:31 43.66537 7.22806 30 ft 5 kts 206°
2026-05-08 16:31 43.66491 7.22749 29 ft 20 kts 224°
2026-05-08 16:31 43.66291 7.22471 27 ft 69 kts 224°
2026-05-08 16:32 43.65808 7.21812 30 ft 125 kts 225°
2026-05-08 16:32 43.65091 7.20827 230 ft 156 kts 223°
2026-05-08 16:32 43.64294 7.19738 774 ft 165 kts 225°
2026-05-08 16:32 43.63499 7.18582 1433 ft 170 kts 226°
2026-05-08 16:33 43.62674 7.17411 2134 ft 171 kts 223°
2026-05-08 16:33 43.61832 7.16239 2784 ft 174 kts 223°
2026-05-08 16:33 43.60786 7.15372 3370 ft 180 kts 193°
2026-05-08 16:33 43.59512 7.15464 3791 ft 198 kts 162°
2026-05-08 16:34 43.58223 7.16435 4044 ft 225 kts 141°
2026-05-08 16:34 43.56883 7.17632 4740 ft 233 kts 153°
2026-05-08 16:34 43.55417 7.18614 5610 ft 230 kts 147°
2026-05-08 16:34 43.54257 7.20022 6731 ft 219 kts 130°
2026-05-08 16:35 43.53307 7.21695 7493 ft 224 kts 126°
2026-05-08 16:35 43.52353 7.23441 8188 ft 233 kts 131°
2026-05-08 16:35 43.51185 7.25061 8827 ft 244 kts 138°
2026-05-08 16:35 43.49920 7.26683 9487 ft 253 kts 137°
2026-05-08 16:36 43.48641 7.28415 10134 ft 262 kts 135°
2026-05-08 16:36 43.47285 7.30082 10885 ft 259 kts 150°
2026-05-08 16:36 43.45605 7.30666 11871 ft 247 kts 186°
2026-05-08 16:36 43.44038 7.29873 12742 ft 241 kts 218°
2026-05-08 16:37 43.43113 7.28003 13436 ft 243 kts 248°
2026-05-08 16:37 43.42303 7.25840 13622 ft 266 kts 236°
2026-05-08 16:37 43.41083 7.23854 13865 ft 285 kts 223°
2026-05-08 16:37 43.39529 7.22034 14128 ft 303 kts 221°
2026-05-08 16:38 43.37932 7.20015 14376 ft 321 kts 223°
2026-05-08 16:38 43.36224 7.17920 14647 ft 337 kts 222°
2026-05-08 16:38 43.34412 7.15744 14938 ft 353 kts 221°
2026-05-08 16:38 43.32533 7.13502 15398 ft 362 kts 221°
2026-05-08 16:39 43.30619 7.11225 16016 ft 366 kts 221°
2026-05-08 16:39 43.28690 7.08935 16684 ft 368 kts 221°
2026-05-08 16:39 43.26747 7.06629 17361 ft 371 kts 221°
2026-05-08 16:39 43.24786 7.04305 18036 ft 373 kts 222°
2026-05-08 16:40 43.22817 7.01971 18623 ft 376 kts 222°
2026-05-08 16:40 43.20959 6.99449 19165 ft 377 kts 231°
2026-05-08 16:40 43.19530 6.96434 19691 ft 379 kts 245°
2026-05-08 16:40 43.18704 6.93022 20279 ft 379 kts 259°
2026-05-08 16:41 43.18540 6.89411 20867 ft 380 kts 273°
2026-05-08 16:41 43.18863 6.85817 21439 ft 382 kts 278°
2026-05-08 16:41 43.19303 6.82223 21990 ft 384 kts 278°
2026-05-08 16:42 43.20200 6.74957 23027 ft 389 kts 278°
2026-05-08 16:42 43.20641 6.71289 23554 ft 391 kts 278°
2026-05-08 16:42 43.21079 6.67604 23979 ft 393 kts 278°
2026-05-08 16:42 43.21515 6.63899 24368 ft 395 kts 278°
2026-05-08 16:43 43.21884 6.60154 24778 ft 397 kts 274°
2026-05-08 16:43 43.22018 6.56419 25182 ft 399 kts 271°
2026-05-08 16:43 43.22081 6.52614 25570 ft 400 kts 270°
2026-05-08 16:43 43.22132 6.48788 25969 ft 403 kts 270°
2026-05-08 16:44 43.22183 6.44940 26349 ft 406 kts 270°
2026-05-08 16:44 43.22233 6.41048 26646 ft 410 kts 270°
2026-05-08 16:44 43.22283 6.37134 27033 ft 412 kts 270°
2026-05-08 16:44 43.22332 6.33203 27427 ft 414 kts 270°
2026-05-08 16:45 43.22381 6.29244 27832 ft 415 kts 270°
2026-05-08 16:45 43.22429 6.25276 28215 ft 417 kts 270°
2026-05-08 16:45 43.22475 6.21290 28584 ft 420 kts 270°
2026-05-08 16:45 43.22521 6.17284 28960 ft 421 kts 270°
2026-05-08 16:46 43.22566 6.13248 29338 ft 424 kts 270°
2026-05-08 16:46 43.22609 6.09201 29686 ft 426 kts 270°
2026-05-08 16:46 43.22652 6.05125 29991 ft 429 kts 269°
2026-05-08 16:46 43.22693 6.01010 30296 ft 432 kts 269°
2026-05-08 16:47 43.22733 5.96881 30571 ft 434 kts 269°
2026-05-08 16:47 43.22772 5.92730 30900 ft 436 kts 269°
2026-05-08 16:47 43.22811 5.88579 31234 ft 437 kts 269°
2026-05-08 16:47 43.22848 5.84398 31546 ft 439 kts 269°
2026-05-08 16:48 43.22883 5.80256 31876 ft 440 kts 269°
2026-05-08 16:48 43.22917 5.76070 32328 ft 438 kts 269°
2026-05-08 16:48 43.22950 5.71900 32789 ft 436 kts 269°
2026-05-08 16:48 43.22980 5.67740 33010 ft 433 kts 269°
2026-05-08 16:49 43.23011 5.63678 33026 ft 420 kts 268°
2026-05-08 16:49 43.23063 5.55802 33027 ft 410 kts 268°
2026-05-08 16:50 43.23104 5.47978 33026 ft 410 kts 268°
2026-05-08 16:50 43.23141 5.40151 33026 ft 410 kts 268°
2026-05-08 16:51 43.23650 5.32357 33037 ft 414 kts 281°
2026-05-08 16:51 43.25353 5.24753 33024 ft 419 kts 286°
2026-05-08 16:52 43.27324 5.17203 33023 ft 421 kts 287°
2026-05-08 16:52 43.29332 5.09658 33023 ft 420 kts 287°
2026-05-08 16:53 43.32285 4.98375 33028 ft 420 kts 287°
2026-05-08 16:53 43.34237 4.90824 33022 ft 419 kts 286°
2026-05-08 16:54 43.36183 4.83258 33021 ft 420 kts 286°
2026-05-08 16:54 43.38126 4.75688 33021 ft 420 kts 286°
2026-05-08 16:55 43.40065 4.68114 33020 ft 420 kts 286°
2026-05-08 16:55 43.41997 4.60540 33020 ft 420 kts 286°
2026-05-08 16:56 43.43927 4.52951 33021 ft 422 kts 286°
2026-05-08 16:56 43.45869 4.45286 33021 ft 424 kts 286°
2026-05-08 16:57 43.47805 4.37624 33028 ft 424 kts 286°
2026-05-08 16:57 43.49741 4.29939 33031 ft 424 kts 286°
2026-05-08 16:58 43.51671 4.22251 33040 ft 424 kts 286°
2026-05-08 16:58 43.53594 4.14563 33046 ft 426 kts 286°
2026-05-08 16:59 43.55522 4.06827 33048 ft 428 kts 286°
2026-05-08 16:59 43.57459 3.99079 33047 ft 428 kts 288°
2026-05-08 17:00 43.59828 3.91588 33037 ft 429 kts 291°
2026-05-08 17:00 43.62330 3.84115 33039 ft 429 kts 291°
2026-05-08 17:01 43.64861 3.76628 33043 ft 434 kts 292°
2026-05-08 17:01 43.67427 3.69001 33026 ft 440 kts 292°
2026-05-08 17:02 43.69564 3.62617 33047 ft 440 kts 292°
2026-05-08 17:02 43.72110 3.54985 33032 ft 440 kts 291°
2026-05-08 17:03 43.74664 3.47304 33023 ft 440 kts 291°
2026-05-08 17:03 43.77202 3.39652 33044 ft 440 kts 291°
2026-05-08 17:04 43.79748 3.31951 33031 ft 440 kts 291°
2026-05-08 17:04 43.82284 3.24255 33044 ft 440 kts 291°
2026-05-08 17:05 43.84823 3.16533 33023 ft 440 kts 291°
2026-05-08 17:05 43.87355 3.08807 33036 ft 440 kts 291°
2026-05-08 17:06 43.89884 3.01070 33018 ft 442 kts 291°
2026-05-08 17:06 43.92423 2.93275 33018 ft 444 kts 291°
2026-05-08 17:07 43.94964 2.85455 33003 ft 445 kts 291°
2026-05-08 17:07 43.97485 2.77674 33007 ft 444 kts 291°
2026-05-08 17:08 44.00017 2.69836 33000 ft 444 kts 291°
2026-05-08 17:08 44.02539 2.61999 32997 ft 445 kts 291°
2026-05-08 17:09 44.05064 2.54135 32990 ft 446 kts 291°
2026-05-08 17:09 44.07591 2.46240 32992 ft 446 kts 291°
2026-05-08 17:10 44.10071 2.38470 32984 ft 446 kts 291°
2026-05-08 17:10 44.12582 2.30584 32987 ft 446 kts 291°
2026-05-08 17:11 44.15096 2.22658 32978 ft 448 kts 290°
2026-05-08 17:11 44.17613 2.14698 32980 ft 450 kts 290°
2026-05-08 17:12 44.20133 2.06707 32973 ft 450 kts 290°
2026-05-08 17:12 44.22640 1.98731 32968 ft 449 kts 291°
2026-05-08 17:13 44.25140 1.90752 32987 ft 449 kts 290°
2026-05-08 17:13 44.27642 1.82742 32955 ft 452 kts 290°
2026-05-08 17:14 44.30153 1.74681 32955 ft 453 kts 290°
2026-05-08 17:14 44.32657 1.66620 32950 ft 453 kts 290°
2026-05-08 17:15 44.35141 1.58595 32939 ft 453 kts 290°
2026-05-08 17:15 44.37631 1.50525 32947 ft 453 kts 290°
2026-05-08 17:16 44.38888 1.46435 32654 ft 461 kts 290°
2026-05-08 17:16 44.40161 1.42287 31882 ft 467 kts 290°
2026-05-08 17:16 44.41453 1.38069 30942 ft 475 kts 291°
2026-05-08 17:16 44.42762 1.33794 30012 ft 482 kts 291°
2026-05-08 17:17 44.44083 1.29478 29262 ft 481 kts 291°
2026-05-08 17:17 44.45395 1.25192 28737 ft 476 kts 290°
2026-05-08 17:17 44.46679 1.20950 28236 ft 470 kts 290°
2026-05-08 17:17 44.47926 1.16753 27768 ft 464 kts 290°
2026-05-08 17:18 44.49152 1.12604 27266 ft 459 kts 290°
2026-05-08 17:18 44.50364 1.08496 26733 ft 455 kts 290°
2026-05-08 17:18 44.51567 1.04412 26208 ft 451 kts 290°
2026-05-08 17:18 44.52743 1.00416 25691 ft 447 kts 290°
2026-05-08 17:19 44.53921 0.96406 25195 ft 443 kts 290°
2026-05-08 17:19 44.55103 0.92378 24672 ft 439 kts 289°
2026-05-08 17:19 44.56243 0.88485 24182 ft 436 kts 289°
2026-05-08 17:19 44.57390 0.84567 23672 ft 432 kts 289°
2026-05-08 17:20 44.58524 0.80683 23115 ft 429 kts 289°
2026-05-08 17:20 44.59647 0.76835 22589 ft 424 kts 289°
2026-05-08 17:20 44.60753 0.73036 22115 ft 419 kts 289°
2026-05-08 17:20 44.61847 0.69276 21627 ft 414 kts 289°
2026-05-08 17:21 44.62928 0.65552 21147 ft 410 kts 289°
2026-05-08 17:21 44.63995 0.61870 20670 ft 405 kts 289°
2026-05-08 17:21 44.65052 0.58220 20201 ft 402 kts 290°
2026-05-08 17:21 44.66095 0.54610 19738 ft 398 kts 290°
2026-05-08 17:22 44.67135 0.51006 19279 ft 396 kts 290°
2026-05-08 17:22 44.68164 0.47435 18817 ft 393 kts 290°
2026-05-08 17:22 44.69188 0.43876 18356 ft 392 kts 290°
2026-05-08 17:22 44.70208 0.40327 17838 ft 390 kts 290°
2026-05-08 17:23 44.71225 0.36783 16923 ft 395 kts 290°
2026-05-08 17:23 44.72264 0.33182 15901 ft 397 kts 290°
2026-05-08 17:23 44.73376 0.29626 14963 ft 395 kts 292°
2026-05-08 17:23 44.74502 0.26133 14153 ft 390 kts 292°
2026-05-08 17:24 44.75616 0.22690 13304 ft 384 kts 292°
2026-05-08 17:24 44.76697 0.19342 12399 ft 379 kts 292°
2026-05-08 17:24 44.77779 0.15988 11496 ft 372 kts 292°
2026-05-08 17:24 44.78820 0.12752 10902 ft 355 kts 292°
2026-05-08 17:25 44.79811 0.09668 10498 ft 336 kts 292°
2026-05-08 17:25 44.80741 0.06774 10374 ft 311 kts 292°
2026-05-08 17:25 44.81594 0.04105 10274 ft 288 kts 291°
2026-05-08 17:25 44.82380 0.01607 10149 ft 271 kts 290°
2026-05-08 17:26 44.83132 -0.00836 10058 ft 274 kts 289°
2026-05-08 17:26 44.83907 -0.03387 9871 ft 297 kts 288°
2026-05-08 17:26 44.84715 -0.06082 9608 ft 297 kts 287°
2026-05-08 17:26 44.85504 -0.08740 9355 ft 292 kts 287°
2026-05-08 17:27 44.86292 -0.11392 8858 ft 293 kts 287°
2026-05-08 17:27 44.87091 -0.14041 8382 ft 293 kts 287°
2026-05-08 17:27 44.87903 -0.16670 7958 ft 292 kts 287°
2026-05-08 17:27 44.88565 -0.19349 7548 ft 288 kts 275°
2026-05-08 17:28 44.88776 -0.22111 7043 ft 287 kts 266°
2026-05-08 17:28 44.88841 -0.24925 6549 ft 288 kts 264°
2026-05-08 17:28 44.88893 -0.27739 6179 ft 283 kts 264°
2026-05-08 17:28 44.88954 -0.30464 5960 ft 273 kts 265°
2026-05-08 17:29 44.89028 -0.33091 5760 ft 263 kts 266°
2026-05-08 17:29 44.89354 -0.35607 5413 ft 263 kts 285°
2026-05-08 17:29 44.90340 -0.37765 5081 ft 262 kts 304°
2026-05-08 17:29 44.91583 -0.39584 4915 ft 253 kts 308°
2026-05-08 17:30 44.92824 -0.41276 4765 ft 243 kts 309°
2026-05-08 17:30 44.94045 -0.42942 4327 ft 246 kts 308°
2026-05-08 17:30 44.95272 -0.44632 4043 ft 243 kts 308°
2026-05-08 17:30 44.96455 -0.46279 3841 ft 237 kts 305°
2026-05-08 17:31 44.97079 -0.48290 3688 ft 222 kts 261°
2026-05-08 17:31 44.96750 -0.50397 3244 ft 222 kts 237°
2026-05-08 17:31 44.95963 -0.52245 3019 ft 217 kts 222°
2026-05-08 17:31 44.94949 -0.53804 2980 ft 217 kts 215°
2026-05-08 17:32 44.93883 -0.55335 2934 ft 221 kts 216°
2026-05-08 17:32 44.92831 -0.56907 2716 ft 217 kts 217°
2026-05-08 17:32 44.91816 -0.58430 2401 ft 209 kts 216°
2026-05-08 17:32 44.90852 -0.59869 2118 ft 194 kts 216°
2026-05-08 17:33 44.89967 -0.61184 1853 ft 176 kts 216°
2026-05-08 17:33 44.89172 -0.62354 1645 ft 155 kts 215°
2026-05-08 17:33 44.88451 -0.63404 1432 ft 146 kts 214°
2026-05-08 17:33 44.87750 -0.64447 1223 ft 148 kts 216°
2026-05-08 17:34 44.87056 -0.65522 929 ft 146 kts 213°
2026-05-08 17:34 44.86344 -0.66531 815 ft 145 kts 212°
2026-05-08 17:34 44.85617 -0.67544 719 ft 149 kts 223°
2026-05-08 17:34 44.84922 -0.68598 508 ft 144 kts 224°
2026-05-08 17:35 44.84228 -0.69594 302 ft 141 kts 224°
2026-05-08 17:35 44.83537 -0.70579 170 ft 138 kts 224°
2026-05-08 17:35 44.82948 -0.71412 165 ft 105 kts 225°
2026-05-08 17:35 44.82515 -0.72034 168 ft 63 kts 226°
2026-05-08 17:36 44.82310 -0.72327 166 ft 35 kts 225°
2026-05-08 17:36 44.82212 -0.72468 166 ft 11 kts 226°
2026-05-08 17:36 44.82155 -0.72496 168 ft 8 kts 158°
2026-05-08 17:36 44.82104 -0.72436 166 ft 11 kts 135°
2026-05-08 17:37 44.82068 -0.72343 166 ft 11 kts 97°
2026-05-08 17:37 44.82080 -0.72229 166 ft 12 kts 70°
2026-05-08 17:37 44.82124 -0.72133 167 ft 12 kts 47°
2026-05-08 17:37 44.82185 -0.72045 166 ft 13 kts 44°
2026-05-08 17:38 44.82257 -0.71952 166 ft 15 kts 41°
2026-05-08 17:38 44.82324 -0.71854 168 ft 13 kts 47°
2026-05-08 17:38 44.82388 -0.71761 168 ft 13 kts 45°
2026-05-08 17:38 44.82454 -0.71668 170 ft 14 kts 45°
2026-05-08 17:39 44.82528 -0.71562 171 ft 16 kts 45°
2026-05-08 17:39 44.82611 -0.71445 169 ft 17 kts 45°
2026-05-08 17:39 44.82701 -0.71321 167 ft 19 kts 44°
2026-05-08 17:39 44.82802 -0.71179 164 ft 21 kts 46°
2026-05-08 17:40 44.82898 -0.71037 166 ft 10 kts 45°
2026-05-08 17:40 44.82937 -0.70966 168 ft 9 kts 69°
2026-05-08 17:40 44.82927 -0.70865 168 ft 13 kts 107°
2026-05-08 17:40 44.82898 -0.70736 168 ft 14 kts 108°
2026-05-08 17:41 44.82871 -0.70603 168 ft 14 kts 106°
2026-05-08 17:41 44.82842 -0.70463 168 ft 15 kts 106°
2026-05-08 17:41 44.82811 -0.70319 168 ft 16 kts 106°
2026-05-08 17:41 44.82782 -0.70168 169 ft 16 kts 107°
2026-05-08 17:42 44.82747 -0.70015 169 ft 17 kts 107°
2026-05-08 17:42 44.82716 -0.69874 169 ft 13 kts 105°
2026-05-08 17:42 44.82712 -0.69785 168 ft 7 kts 74°
2026-05-08 17:42 44.82738 -0.69743 168 ft 5 kts 36°
2026-05-08 17:43 44.82760 -0.69706 168 ft 5 kts 61°
2026-05-08 17:43 44.82759 -0.69655 168 ft 6 kts 100°
2026-05-08 17:43 44.82753 -0.69619 168 ft 0 kts 105°
2026-05-08 17:43 44.82751 -0.69612 168 ft 2 kts 106°
2026-05-08 17:44 44.82751 -0.69609 168 ft 0 kts 106°